Regional Weather Roundup
Issued by NWS

Home | Current Version | Previous Version | Text Only | Print | Product List | Glossary On
Versions: 1 2 3 4 5 6 7 8 9 10 11 12 13 14 15 16 17 18 19 20 21 22 23 24 25 26 27 28 29 30 31 32 33 34 35 36 37 38 39 40 41 42 43 44 45 46 47 48 49 50
024
ASUS45 KBOU 101910
RWRCO

WEATHER ROUNDUP FOR COLORADO
NATIONAL WEATHER SERVICE DENVER/BOULDER CO
1200 PM MST SUN DEC 10 2017

NOTE: "FAIR" INDICATES FEW OR NO CLOUDS BELOW 12000 FEET WITH NO
SIGNIFICANT WEATHER AND/OR OBSTRUCTIONS TO VISIBILITY.

COZ001>005-013-030-031-102000-
...NORTHWEST COLORADO...

CITY           SKY/WX    TMP DP  RH WIND       PRES   REMARKS
CRAIG          FAIR      28  14  55 SW5       30.58F WCI  23
HAYDEN         FAIR      32  15  49 SE8       30.59F WCI  25
MEEKER         FAIR      42   6  22 CALM      30.56F
RABBIT EARS PA FAIR      28   9  43 W9G20     30.59S WCI  20
STEAMBOAT SPGS FAIR      30  14  51 CALM      30.58F
WALDEN         FAIR      30  10  43 S5        30.57F WCI  25
$$

COZ006>008-011-102000-
...WEST CENTRAL VALLEYS...

CITY           SKY/WX    TMP DP  RH WIND       PRES   REMARKS
GRAND JUNCTION FAIR      40   6  24 S8        30.58F
MONTROSE       FAIR      39   4  23 N5        30.59F
EAGLE          FAIR      25  11  55 CALM      30.66F
RIFLE          FAIR      38   4  24 CALM      30.59F
DELTA          FAIR      38   3  22 CALM      30.59F
NUCLA          FAIR      36  -2  20 CALM      30.60F
$$

COZ017>023-064>068-102000-
...SOUTHWEST COLORADO...

CITY           SKY/WX    TMP DP  RH WIND       PRES   REMARKS
DURANGO        FAIR      45   4  18 CALM      30.52F
CORTEZ         FAIR      42   2  18 VRB5      30.54F
PAGOSA SPRINGS FAIR      46 -11   8 CALM      30.53F
TELLURIDE      FAIR      47 -19   6 W3        30.57F
WOLF CREEK PAS FAIR      34 -26   7 NW3       30.67F
$$

COZ009-010-012-014-032>034-037-058>063-102000-
...CENTRAL COLORADO...

CITY           SKY/WX    TMP DP  RH WIND       PRES   REMARKS
ASPEN          FAIR      39   0  19 NW6       30.56F
BUENA VISTA    FAIR      45  -9  10 S3        30.50F
COPPER MTN     NOT AVBL
BERTHOUD PASS  FAIR      19   9  63 NW15G21   30.60S WCI   5
COTTONWOOD PAS FAIR      46 -13   8 SE6       30.54F
GUNNISON       FAIR      29   4  34 CALM      30.61F
KREMMLING      FLURRIES  23  18  80 CALM      30.67F
LEADVILLE      FAIR      39 -18   8 N9        30.55F
MONARCH PASS   FAIR      30 -13  15 W16G24    30.71S WCI  19
SALIDA         FAIR      46  -4  12 CALM      30.56F
SUNLIGHT       FAIR      30 -13  15 CALM      30.65S
WILKERSON PASS FAIR      36 -24   7 N6        30.58F
$$

COZ069>075-102000-
...SAN LUIS VALLEY/SANGRE DE CRISTO MOUNTAINS...

CITY           SKY/WX    TMP DP  RH WIND       PRES   REMARKS
ALAMOSA        FAIR      41  -2  16 VRB3      30.53F
DEL NORTE      FAIR      40  -6  14 CALM      30.54F
LA VETA PASS   FAIR      36   1  23 SW16        N/A
SAGUACHE       FAIR      39  -4  16 SE6       30.55F
$$

COZ035-036-038>040-102000-
...NORTHERN COLORADO FRONT RANGE...

CITY           SKY/WX    TMP DP  RH WIND       PRES   REMARKS
DENVER INTL AP FAIR      58  -6   7 SW6       30.39F
DMNS CITY PARK NOT AVBL
AURORA         MOSUNNY   57  -6   7 W7        30.39F
FRONT RANGE AP SUNNY     59  -4   7 W10       30.40F
ERIE MUNI ARPT FAIR      54  -2  10 CALM      30.44F
BOULDER MUN AP FAIR      54   3  13 CALM      30.39F
CENTENNIAL     FAIR      57  -3   8 CALM      30.40F
BROOMFIELD     SUNNY     54   0  11 CALM      30.41F
FORT COLLINS   FAIR      53   4  13 S5        30.40F
LONGMONT       FAIR      56   3  11 CALM      30.41F
$$

COZ041-046-047-076>085-087-088-102000-
...PIKES PEAK/PALMER DIVIDE AND SOUTHERN FOOTHILLS...

CITY           SKY/WX    TMP DP  RH WIND       PRES   REMARKS
COLO. SPRINGS  FAIR      54  -5   8 SE10      30.43F
A. F. ACADEMY  FAIR      53 -13   6 S9        30.42F
SCHRIEVER AFB  FAIR      53  -8   8 S8        30.43F
CHEYENNE MTN   FAIR      50  -6   9 SE12      30.38F
ELLICOTT         N/A    N/A N/A N/A SW7       30.42F
FALCON         FAIR      53  -9   7 S10       30.45F
FORT CARSON    FAIR      55 -11   6 SE10      30.41F
LIMON          FAIR      58  -9   6 SW6       30.40F
MONUMENT HILL  FAIR      54  -9   7 SW3       30.44F
CANON CITY     FAIR      57   0   9 W7        30.41F
WALSENBURG     FAIR      59   1  10 CALM      30.42F
TRINIDAD       FAIR      57  -5   8 CALM      30.42F
$$

COZ042>045-048>051-090-091-102000-
...NORTHEAST COLORADO...

CITY           SKY/WX    TMP DP  RH WIND       PRES   REMARKS
GREELEY ARPT   FAIR      50   7  17 SW6       30.40F
AKRON          FAIR      55   1  11 NW12      30.37F
BURLINGTON     FAIR      61   2   9 NW14G24   30.37F
WRAY           FAIR      63   3   9 NW15      30.34F
YUMA           FAIR      57   1  10 N14       30.35F
STERLING       FAIR      61   3  10 N16       30.34F
HOLYOKE        FAIR      63   5  10 NW17G23   30.33F
FORT MORGAN    FAIR      54   2  12 W8        30.39F
$$

COZ086-089-092>099-102000-
...SOUTHEAST COLORADO...

CITY           SKY/WX    TMP DP  RH WIND       PRES   REMARKS
PUEBLO         FAIR      58  -3   8 SW5       30.40F
LA JUNTA       FAIR      56   6  13 VRB5      30.41F
LAMAR          FAIR      58   7  13 W12       30.37F
SPRINGFIELD      N/A     61   3  10 NW7       30.39F
$$




USA.gov is the U.S. government's official web portal to all federal, state and local government web resources and services.